Вернуться в каталог

FLOCK 4BE 14

АктивенНаукаSSO
NORAD 60517·PAYLOAD·🇺🇸 United States

Запущен Aug 16, 2024 с Vandenberg Space Force Base

Loading…

Ближайшие Пролёты (ближайшие 24 часа)

TLE

СвежийSource: CelesTrak SupGP

Эпоха: Sep 14, 2026, 06:45 UTC

1 60517C 24149AG  26257.28133102  .00043367  00000+0  95365-3 0  2571
2 60517  97.3650 341.9709 0003244 343.9744 216.4112 15.43984933    18

Отслеживайте FLOCK 4BE 14 в реальном времени с AllMySat

Download on the App Store